[[{"header":{"parameterUnit":"m.s-1","parameterCategory":2,"la1":30.2991,"la2":30.254,"lo1":-89.0895,"lo2":-89.0444,"dy":0.0017,"dx":0.0017,"nx":28,"ny":28,"refTime":"2023-07-28T21:00:00:Z","depth":"0","parameterNumber":2,"parameterNumberName":"U-component_of_CURRENTS"},"data":[0,0,0,0,0,0,0,0,0,0,0,0,0,0,0,0,0,0,0,0,0,0,0,0,0,0,0,0,0,0,0,0,0,0,0,0,0,0,0,0,0,0,0,0,0,0,0,0,0,0,0,0,0,0,0,0,0,0,-0.0175,-0.0174,0,-0.0103,-0.0102,-0.0101,-0.0127,-0.0129,-0.013,-0.0132,-0.003,-0.0026,-0.0022,0,0,0,0,0,0,0,0,0,0,0,0,0,-0.0266,-0.0264,-0.0175,-0.0174,-0.0173,-0.0103,-0.0102,-0.0101,-0.0126,-0.0129,-0.0131,-0.0133,-0.0032,-0.0026,-0.0021,0,0,0,0,0,0,0,0,0,0,0,0,0,-0.0211,-0.0264,-0.0175,-0.018,-0.018,-0.0103,-0.0102,-0.01,-0.0126,-0.0129,-0.0131,-0.0134,-0.0033,-0.0027,-0.002,0.0077,0,0,-0.0,0.0003,0,0,0,0,0,0,0,0,-0.0214,-0.0207,-0.018,-0.0179,-0.0179,-0.0129,-0.0097,-0.0041,-0.0125,-0.0143,-0.0132,-0.0135,-0.006,-0.0051,-0.0028,0.0082,0.0086,0.0001,0.0005,0.0008,0.0009,0,0,0,0,0,0,0,-0.0218,-0.021,-0.0143,-0.0179,-0.0178,-0.0163,-0.0158,-0.0086,-0.0084,-0.0142,-0.0144,-0.014,-0.006,-0.0035,-0.0026,0.0087,0.0,0.0006,0.001,0.0013,0.0146,0.0146,0,0,0,0,0,0,-0.0232,-0.0213,-0.0146,-0.0142,-0.0207,-0.0159,-0.0154,-0.014,-0.0086,-0.0081,-0.0138,-0.0141,-0.0045,-0.0034,-0.0023,-0.0027,0.0007,0.0014,0.0018,0.0147,0.0146,0.0145,0,0,0,0,0,0,-0.0234,-0.0226,-0.0149,-0.0179,-0.0169,-0.0156,-0.0139,-0.0137,-0.0141,-0.0083,-0.0078,-0.0148,-0.0046,-0.0032,-0.0,-0.0019,0.0017,0.0023,0.0147,0.0146,0.0146,0.0042,0,0,0,0,0,0,-0.0237,-0.0227,-0.0231,-0.018,-0.0168,-0.0157,-0.0136,-0.0134,-0.0134,-0.0139,-0.0089,-0.0081,-0.0048,-0.0011,0.0006,-0.001,0.0028,0.0148,0.0147,0.0146,0.0046,0.0038,0.0031,0,0,0,0,0,-0.024,-0.0236,-0.0231,-0.0224,-0.017,-0.0158,-0.0152,-0.0149,-0.0132,-0.0156,-0.0114,-0.0084,-0.0005,-0.0005,0.0015,0.0,0.0148,0.0147,0.0146,0.005,0.004,0.0031,0,0,0,0,0,0,-0.0258,-0.0237,-0.0231,-0.0215,-0.0213,-0.0166,-0.0167,-0.0155,-0.0133,-0.0128,-0.0075,-0.0064,-0.0043,0.0,-0.0002,0.0035,0.0072,0.0075,-0.0008,-0.0016,-0.0024,-0.0024,0.0034,0,0,0,0,0,-0.0265,-0.0272,-0.0245,-0.0237,-0.0231,-0.0197,-0.0189,-0.0187,-0.0155,-0.0149,-0.0114,-0.0066,-0.0021,-0.0007,0.004,0.0074,0.0081,0.0074,0.0066,0.0059,0.0072,0.0012,-0.0001,0.0142,0.0142,0.0142,0,0,-0.0265,-0.0257,-0.0257,-0.0246,-0.0225,-0.0218,-0.02,-0.0195,-0.0193,-0.0133,-0.0119,-0.0082,-0.0015,0.0004,0.0017,0.0029,0.0028,0.0058,0.0051,0.0069,0.0009,-0.0005,-0.0018,0.0141,0.0141,0.0142,0,0,-0.0263,-0.0261,-0.0264,-0.0265,-0.0258,-0.0245,-0.0252,-0.0222,-0.0224,-0.0194,-0.0158,-0.0154,-0.0062,-0.0057,-0.0026,-0.004,-0.0005,-0.0012,-0.0056,-0.0116,-0.0129,-0.014,-0.0136,-0.0146,-0.0025,-0.0026,-0.0026,0,-0.0263,-0.0258,-0.0266,-0.0262,-0.026,-0.026,-0.0253,-0.0247,-0.022,-0.0218,-0.021,-0.0133,-0.0096,-0.0082,-0.0089,-0.0062,-0.0057,-0.0032,-0.013,-0.0141,-0.0151,-0.0144,-0.0154,-0.0031,-0.003,-0.0029,-0.0029,0,-0.0266,-0.0258,-0.0256,-0.0261,-0.0267,-0.0267,-0.0262,-0.0278,-0.0267,-0.0257,-0.0253,-0.0219,-0.0183,-0.0179,-0.0121,-0.0165,-0.0124,-0.0133,-0.0117,-0.0173,-0.016,-0.0169,-0.0038,-0.0036,-0.0035,-0.0033,0,0,-0.0255,-0.026,-0.0257,-0.0252,-0.0266,-0.0264,-0.028,-0.0293,-0.0306,-0.0304,-0.0317,-0.0272,-0.027,-0.0235,-0.0206,-0.0252,-0.0317,-0.0211,-0.0212,-0.0221,-0.0398,-0.0362,-0.0367,-0.0349,-0.0351,-0.0353,-0.0357,0,-0.0249,-0.0244,-0.0256,-0.025,-0.0237,-0.0261,-0.0278,-0.0296,-0.0313,-0.0338,-0.0339,-0.0329,-0.0287,-0.0278,-0.0321,-0.0311,-0.0344,-0.0311,-0.0327,-0.0326,-0.0303,-0.0379,-0.0241,-0.0233,-0.0365,-0.0366,-0.0367,0,-0.0235,-0.0239,-0.0227,-0.0235,-0.0234,-0.0238,-0.028,-0.0298,-0.0346,-0.0356,-0.038,-0.0376,-0.0406,-0.0382,-0.0426,-0.04,-0.039,-0.0398,-0.0399,-0.0332,-0.0308,-0.0199,-0.0244,-0.0188,-0.038,-0.0379,-0.0378,0,-0.0206,-0.0209,-0.0202,-0.0203,-0.0222,-0.0225,-0.0247,-0.0294,-0.0322,-0.0373,-0.0401,-0.0439,-0.0452,-0.0483,-0.0463,-0.0453,-0.0514,-0.0519,-0.0476,-0.047,-0.0337,-0.0317,-0.0342,-0.0565,-0.0565,-0.0565,-0.0565,0,-0.0183,-0.0173,-0.0183,-0.0171,-0.0184,-0.0198,-0.0223,-0.0261,-0.032,-0.0352,-0.04,-0.043,-0.0481,-0.051,-0.0497,-0.0501,-0.0548,-0.0485,-0.0489,-0.0364,-0.0348,-0.0278,-0.0352,-0.0565,-0.0565,-0.0565,-0.0565,0,-0.0148,-0.0147,-0.0139,-0.0155,-0.0155,-0.0165,-0.0202,-0.0232,-0.0289,-0.034,-0.0356,-0.0435,-0.0468,-0.05,-0.0544,-0.0538,-0.0542,-0.0535,-0.0349,-0.0332,-0.0264,-0.035,-0.0475,-0.0456,-0.0514,-0.0514,-0.0513,0,-0.0139,-0.0123,-0.0127,-0.0127,-0.0128,-0.014,-0.0152,-0.0202,-0.023,-0.0327,-0.0344,-0.0409,-0.0415,-0.0471,-0.0472,-0.0471,-0.0497,-0.0363,-0.0345,-0.0249,-0.0349,-0.0427,-0.0407,-0.0189,-0.0186,-0.0184,-0.0181,0,-0.0136,-0.0127,-0.0133,-0.0124,-0.0117,-0.0124,-0.0133,-0.0148,-0.0206,-0.0243,-0.0282,-0.0302,-0.0342,-0.0295,-0.0317,-0.0303,-0.0355,-0.0314,-0.0279,-0.016,-0.0186,-0.0168,-0.0158,-0.0159,-0.0161,-0.0163,-0.0164,-0.0165,-0.015,-0.0156,-0.0146,-0.0143,-0.0134,-0.0108,-0.0095,-0.0097,-0.0112,-0.0139,-0.0176,-0.0158,-0.0117,-0.0129,-0.0121,-0.0033,-0.0223,-0.0004,-0.013,-0.0223,-0.0186,-0.0108,-0.0089,-0.009,-0.0092,-0.0093,-0.0095,0,-0.0177,-0.0172,-0.0167,-0.0146,-0.0133,-0.0117,-0.0092,-0.0066,-0.0042,-0.002,-0.0014,0.0083,0.0161,0.0187,0.0245,0.0201,0.018,0.015,0.0112,0.0113,0.0178,0.022,0.0386,0.0386,0.0386,0.0385,0.0385,0.0385,-0.019,-0.0191,-0.0179,-0.0153,-0.0132,-0.0094,-0.0068,-0.001,0.0033,0.0128,0.0205,0.0252,0.0346,0.0328,0.0367,0.0345,0.026,0.0178,0.0071,0.0189,0.0168,0.0149,0.0181,0.0335,0.0334,0.0164,0.0162,0.016]},{"header":{"parameterUnit":"m.s-1","parameterCategory":2,"la1":30.2991,"la2":30.254,"lo1":-89.0895,"lo2":-89.0444,"dy":0.0017,"dx":0.0017,"nx":28,"ny":28,"refTime":"2023-07-28T21:00:00:Z","depth":"0","parameterNumber":3,"parameterNumberName":"V-component_of_CURRENTS"},"data":[0,0,0,0,0,0,0,0,0,0,0,0,0,0,0,0,0,0,0,0,0,0,0,0,0,0,0,0,0,0,0,0,0,0,0,0,0,0,0,0,0,0,0,0,0,0,0,0,0,0,0,0,0,0,0,0,0,0,-0.0035,-0.0034,0,0.0122,0.0124,0.0126,0.0191,0.019,0.019,0.0189,0.0262,0.0264,0.0266,0,0,0,0,0,0,0,0,0,0,0,0,0,-0.0162,-0.016,-0.0035,-0.0034,-0.0032,0.0122,0.0124,0.0127,0.0191,0.019,0.019,0.0189,0.0261,0.0264,0.0267,0,0,0,0,0,0,0,0,0,0,0,0,0,-0.0064,-0.016,-0.0036,0.0017,0.0023,0.0121,0.0124,0.0127,0.0191,0.019,0.019,0.0189,0.026,0.0264,0.0267,0.0306,0,0,0.0278,0.028,0,0,0,0,0,0,0,0,-0.007,-0.0059,0.0008,0.0014,0.0021,0.0134,0.0106,0.0182,0.0191,0.013,0.0189,0.0188,0.021,0.0218,0.0254,0.0309,0.0312,0.0279,0.0281,0.0282,0.0283,0,0,0,0,0,0,0,-0.0077,-0.0065,0.0029,0.001,0.0018,0.0074,0.0086,0.0122,0.0173,0.0135,0.014,0.0154,0.0213,0.025,0.0256,0.0313,0.0278,0.0282,0.0284,0.0285,0.0334,0.0333,0,0,0,0,0,0,-0.0106,-0.0072,0.0024,0.0034,-0.003,0.0076,0.009,0.01,0.0174,0.0185,0.0154,0.0156,0.0244,0.0251,0.0258,0.0249,0.0282,0.0286,0.0288,0.0335,0.0334,0.0333,0,0,0,0,0,0,-0.0109,-0.0099,0.0018,-0.0017,0.0001,0.0078,0.009,0.0104,0.0139,0.019,0.0199,0.0174,0.0244,0.0253,0.0288,0.0254,0.0287,0.0291,0.0336,0.0335,0.0333,0.0269,0,0,0,0,0,0,-0.0114,-0.0101,-0.0092,-0.0019,0.0002,0.0075,0.0091,0.0107,0.0148,0.0152,0.021,0.0216,0.0244,0.0283,0.0292,0.026,0.0294,0.0337,0.0335,0.0334,0.0272,0.0265,0.0259,0,0,0,0,0,-0.0119,-0.0094,-0.0092,-0.008,0.0008,0.0076,0.0093,0.0146,0.0149,0.0173,0.0204,0.0214,0.0277,0.0286,0.0297,0.0265,0.0338,0.0336,0.0334,0.0275,0.0266,0.026,0,0,0,0,0,0,-0.0131,-0.0083,-0.008,-0.004,0.0006,0.0086,0.0125,0.0144,0.0193,0.0198,0.0227,0.0236,0.0248,0.0272,0.0281,0.0272,0.03,0.03,0.0251,0.0244,0.0237,0.0193,0.0297,0,0,0,0,0,-0.0137,-0.0119,-0.0062,-0.0035,-0.0007,0.0052,0.0088,0.0121,0.0169,0.0191,0.0216,0.0239,0.0251,0.026,0.0288,0.0299,0.0282,0.0277,0.0271,0.0265,0.0235,0.0196,0.0182,0.0326,0.0326,0.0326,0,0,-0.0141,-0.0109,-0.01,-0.0039,0.0008,0.0042,0.0074,0.0134,0.0132,0.0189,0.02,0.023,0.0252,0.0259,0.0263,0.0272,0.0216,0.0263,0.0258,0.023,0.0192,0.0178,0.0165,0.0325,0.0325,0.0325,0,0,-0.0129,-0.0103,-0.008,-0.0042,0.0022,0.0052,0.006,0.0128,0.0133,0.0161,0.0177,0.0178,0.0227,0.0211,0.0213,0.0187,0.0191,0.0202,0.0129,0.0092,0.0079,0.0068,0.0027,0.0012,0.0191,0.0191,0.0191,0,-0.0132,-0.0107,-0.0061,-0.0024,-0.0008,0.0043,0.0062,0.0082,0.014,0.0115,0.0153,0.0156,0.0187,0.0136,0.0133,0.0166,0.0156,0.0158,0.0081,0.007,0.0059,0.002,0.0005,0.0188,0.0188,0.0188,0.0189,0,-0.0106,-0.0086,-0.0061,-0.0027,0.0001,0.0034,0.0055,0.0059,0.0064,0.0063,0.003,0.0069,0.0056,0.0064,0.0101,0.0027,0.0048,0.0084,0.0096,0.004,0.0003,-0.0012,0.0183,0.0184,0.0185,0.0186,0,0,-0.0123,-0.0062,-0.0058,-0.0059,-0.0004,0.0014,-0.0003,-0.0022,-0.0066,-0.0039,-0.0107,-0.0091,-0.0084,-0.0084,-0.0058,-0.0089,-0.0157,-0.0032,-0.0032,-0.0082,-0.0242,-0.0255,-0.0272,-0.0122,-0.0125,-0.0127,-0.0238,0,-0.0126,-0.0088,-0.0062,-0.006,-0.0044,-0.0031,-0.0062,-0.008,-0.0098,-0.0146,-0.0167,-0.019,-0.0141,-0.0139,-0.0171,-0.0145,-0.0199,-0.0132,-0.0173,-0.0176,-0.0188,-0.0291,-0.0144,-0.0233,-0.0252,-0.0255,-0.0257,0,-0.0114,-0.0102,-0.0091,-0.0108,-0.0102,-0.0103,-0.0169,-0.0186,-0.0249,-0.0262,-0.0309,-0.0305,-0.0358,-0.029,-0.0347,-0.0296,-0.0291,-0.028,-0.0283,-0.0291,-0.0218,-0.0179,-0.0259,-0.0014,-0.0279,-0.0277,-0.0276,0,-0.0159,-0.0133,-0.0144,-0.0136,-0.0134,-0.0161,-0.0178,-0.0229,-0.0276,-0.0338,-0.037,-0.0427,-0.0443,-0.0459,-0.0437,-0.0385,-0.0497,-0.042,-0.0453,-0.0453,-0.034,-0.0326,-0.02,-0.0503,-0.0503,-0.0502,-0.0502,0,-0.0175,-0.0181,-0.0165,-0.0169,-0.0217,-0.02,-0.0271,-0.0295,-0.0353,-0.0421,-0.043,-0.0493,-0.0479,-0.0531,-0.0504,-0.0545,-0.0561,-0.0513,-0.0502,-0.0358,-0.0345,-0.0135,-0.0066,-0.0506,-0.0505,-0.0505,-0.0504,0,-0.0196,-0.018,-0.0201,-0.0219,-0.0226,-0.0261,-0.0306,-0.0362,-0.0396,-0.0483,-0.0502,-0.0557,-0.063,-0.0651,-0.0682,-0.0634,-0.056,-0.0677,-0.0518,-0.0488,-0.0271,-0.0214,-0.0276,-0.0178,-0.0728,-0.0729,-0.073,0,-0.0196,-0.02,-0.0237,-0.0259,-0.0261,-0.0305,-0.0339,-0.0378,-0.0439,-0.0528,-0.0582,-0.0675,-0.0756,-0.0831,-0.0789,-0.0812,-0.065,-0.0648,-0.0538,-0.0286,-0.0213,-0.0214,-0.0123,-0.0404,-0.0402,-0.0401,-0.04,0,-0.021,-0.0222,-0.0246,-0.0294,-0.0329,-0.0377,-0.043,-0.0483,-0.0541,-0.0608,-0.0707,-0.0773,-0.0856,-0.0819,-0.0837,-0.0793,-0.046,-0.0624,-0.0384,-0.0003,0.0024,0.0139,-0.0304,-0.0387,-0.0389,-0.039,-0.039,-0.0391,-0.0222,-0.0251,-0.0285,-0.0335,-0.0374,-0.0433,-0.0482,-0.0552,-0.0638,-0.073,-0.0791,-0.0862,-0.072,-0.0746,-0.0696,-0.0341,-0.0473,-0.0136,-0.0109,-0.0149,0.0002,-0.0446,-0.0502,-0.0504,-0.0505,-0.0507,-0.0508,0,-0.0229,-0.027,-0.032,-0.0381,-0.0432,-0.0446,-0.053,-0.0579,-0.0673,-0.0746,-0.0834,-0.0727,-0.0535,-0.0345,0.0061,0.0252,0.0297,0.0374,0.051,0.0564,0.019,0.0275,0.0414,0.0414,0.0414,0.0414,0.0413,0.0413,-0.0237,-0.0294,-0.0331,-0.0417,-0.0454,-0.0522,-0.0568,-0.0626,-0.0679,-0.0702,-0.0682,-0.0691,-0.0209,0.0349,0.0865,0.0903,0.1082,0.0972,0.1005,0.0917,0.0878,0.084,0.0946,0.1222,0.1223,0.1474,0.1477,0.1479]}],[{"header":{"parameterUnit":"m.s-1","parameterCategory":2,"la1":30.2991,"la2":30.254,"lo1":-89.0895,"lo2":-89.0444,"dy":0.0017,"dx":0.0017,"nx":28,"ny":28,"refTime":"2023-07-28T21:00:00:Z","depth":"2","parameterNumber":2,"parameterNumberName":"U-component_of_CURRENTS"},"data":[0,0,0,0,0,0,0,0,0,0,0,0,0,0,0,0,0,0,0,0,0,0,0,0,0,0,0,0,0,0,0,0,0,0,0,0,0,0,0,0,0,0,0,0,0,0,0,0,0,0,0,0,0,0,0,0,0,0,-0.2175,-0.2175,0,-0.2149,-0.2148,-0.2148,-0.2089,-0.2088,-0.2088,-0.2087,-0.196,-0.1958,-0.1955,0,0,0,0,0,0,0,0,0,0,0,0,0,-0.2184,-0.2184,-0.2175,-0.2175,-0.2175,-0.2149,-0.2148,-0.2147,-0.2089,-0.2088,-0.2087,-0.2086,-0.1961,-0.1958,-0.1955,0,0,0,0,0,0,0,0,0,0,0,0,0,-0.2168,-0.2183,-0.2175,-0.2145,-0.2143,-0.2149,-0.2148,-0.2147,-0.209,-0.2088,-0.2087,-0.2086,-0.1962,-0.1958,-0.1954,-0.1957,0,0,-0.1943,-0.1941,0,0,0,0,0,0,0,0,-0.2169,-0.2167,-0.2149,-0.2147,-0.2144,-0.2124,-0.2105,-0.208,-0.209,-0.2106,-0.2087,-0.2085,-0.2009,-0.2001,-0.1996,-0.1951,-0.1945,-0.1942,-0.194,-0.1938,-0.1937,0,0,0,0,0,0,0,-0.217,-0.2168,-0.2161,-0.215,-0.2147,-0.2137,-0.2133,-0.21,-0.206,-0.2104,-0.2101,-0.2104,-0.2006,-0.1999,-0.1992,-0.1944,-0.1942,-0.1939,-0.1937,-0.1935,-0.1919,-0.1921,0,0,0,0,0,0,-0.2181,-0.2169,-0.2162,-0.216,-0.2158,-0.2138,-0.2133,-0.2129,-0.2063,-0.2053,-0.2105,-0.2102,-0.2007,-0.1996,-0.1987,-0.194,-0.1938,-0.1935,-0.1933,-0.1917,-0.192,-0.1922,0,0,0,0,0,0,-0.2181,-0.218,-0.2163,-0.2167,-0.2165,-0.214,-0.2135,-0.2129,-0.2073,-0.2065,-0.2053,-0.205,-0.2005,-0.1992,-0.1959,-0.1936,-0.1933,-0.193,-0.1915,-0.1918,-0.1921,-0.1876,0,0,0,0,0,0,-0.2182,-0.218,-0.2141,-0.2168,-0.2165,-0.2127,-0.2137,-0.213,-0.2082,-0.2075,-0.2014,-0.2005,-0.2003,-0.1966,-0.1956,-0.1931,-0.1927,-0.1913,-0.1916,-0.192,-0.1875,-0.1877,-0.1878,0,0,0,0,0,-0.2182,-0.2137,-0.2139,-0.2136,-0.2125,-0.2126,-0.2121,-0.2098,-0.208,-0.2043,-0.2039,-0.2004,-0.1982,-0.1963,-0.1951,-0.1925,-0.1911,-0.1915,-0.1919,-0.1874,-0.1876,-0.1878,0,0,0,0,0,0,-0.2109,-0.2129,-0.2131,-0.209,-0.2093,-0.2116,-0.2075,-0.2068,-0.2035,-0.202,-0.201,-0.2,-0.1971,-0.1967,-0.1947,-0.1944,-0.1947,-0.1949,-0.1917,-0.1918,-0.192,-0.194,-0.1923,0,0,0,0,0,-0.2083,-0.2037,-0.2084,-0.203,-0.2046,-0.2052,-0.2035,-0.2031,-0.2028,-0.2008,-0.1973,-0.197,-0.1989,-0.1964,-0.1967,-0.1939,-0.1938,-0.1929,-0.193,-0.1931,-0.1947,-0.1967,-0.197,-0.1935,-0.1935,-0.1935,0,0,-0.203,-0.2034,-0.2002,-0.2008,-0.2012,-0.2046,-0.2035,-0.2007,-0.2016,-0.2001,-0.1959,-0.1956,-0.1988,-0.1982,-0.1967,-0.1962,-0.193,-0.1936,-0.1936,-0.1953,-0.1971,-0.1974,-0.1977,-0.1938,-0.1938,-0.1937,0,0,-0.1954,-0.1926,-0.1902,-0.1927,-0.1941,-0.1968,-0.1954,-0.1965,-0.1944,-0.1923,-0.1948,-0.1945,-0.191,-0.196,-0.1983,-0.1998,-0.1944,-0.1976,-0.1977,-0.1995,-0.1997,-0.1999,-0.1941,-0.1939,-0.1968,-0.1968,-0.1968,0,-0.1902,-0.1872,-0.1886,-0.1916,-0.1941,-0.1941,-0.1973,-0.1968,-0.1949,-0.1949,-0.19,-0.1932,-0.1924,-0.1998,-0.2003,-0.1996,-0.1966,-0.1953,-0.1992,-0.1995,-0.1997,-0.1939,-0.1936,-0.1967,-0.1967,-0.1967,-0.1967,0,-0.1835,-0.1836,-0.1826,-0.1874,-0.192,-0.1902,-0.1979,-0.1952,-0.192,-0.1929,-0.1929,-0.1937,-0.1961,-0.1958,-0.1972,-0.2008,-0.1961,-0.1989,-0.1972,-0.1997,-0.1934,-0.1932,-0.1964,-0.1965,-0.1965,-0.1966,0,0,-0.1657,-0.1759,-0.1743,-0.1793,-0.1888,-0.1912,-0.1966,-0.2006,-0.2016,-0.1971,-0.1984,-0.2013,-0.1986,-0.2018,-0.2028,-0.2037,-0.1995,-0.1999,-0.2001,-0.1915,-0.1957,-0.1858,-0.1846,-0.2007,-0.2008,-0.2009,-0.1881,0,-0.1585,-0.1618,-0.1709,-0.1758,-0.1811,-0.1903,-0.1947,-0.2002,-0.2021,-0.2017,-0.2035,-0.2038,-0.2023,-0.2007,-0.202,-0.202,-0.1998,-0.2023,-0.1972,-0.197,-0.1858,-0.1846,-0.1656,-0.1523,-0.188,-0.1879,-0.1879,0,-0.1487,-0.1529,-0.1578,-0.1725,-0.1755,-0.1784,-0.1883,-0.1901,-0.1971,-0.1996,-0.2035,-0.2061,-0.2081,-0.205,-0.2042,-0.2042,-0.1991,-0.1977,-0.1973,-0.1905,-0.1871,-0.1573,-0.1506,-0.1876,-0.1876,-0.1877,-0.1877,0,-0.132,-0.1437,-0.1455,-0.1501,-0.1673,-0.1694,-0.1715,-0.184,-0.1878,-0.194,-0.2007,-0.2046,-0.2025,-0.2022,-0.198,-0.1999,-0.1938,-0.1974,-0.1838,-0.1827,-0.1675,-0.1651,-0.1962,-0.1963,-0.1963,-0.1963,-0.1964,0,-0.1205,-0.1215,-0.1351,-0.1349,-0.1385,-0.1529,-0.1557,-0.1618,-0.1718,-0.1782,-0.1916,-0.198,-0.2014,-0.2011,-0.1972,-0.1866,-0.1922,-0.1828,-0.1802,-0.1649,-0.1624,-0.1965,-0.1967,-0.1958,-0.1959,-0.196,-0.1961,0,-0.1062,-0.1114,-0.117,-0.1289,-0.1312,-0.1309,-0.1433,-0.1479,-0.1575,-0.1676,-0.1698,-0.187,-0.1857,-0.1891,-0.185,-0.1823,-0.1764,-0.1709,-0.1484,-0.1435,-0.1639,-0.1641,-0.1566,-0.1561,-0.1558,-0.1555,-0.1552,0,-0.0991,-0.0983,-0.1095,-0.1114,-0.1152,-0.1179,-0.1227,-0.1348,-0.1442,-0.161,-0.1657,-0.1704,-0.1738,-0.1643,-0.1573,-0.1477,-0.1604,-0.1287,-0.1336,-0.1623,-0.1605,-0.1612,-0.1619,-0.1081,-0.1074,-0.1069,-0.1065,0,-0.0872,-0.0891,-0.0947,-0.0995,-0.1032,-0.1128,-0.1175,-0.1272,-0.1427,-0.1522,-0.1593,-0.1594,-0.1507,-0.1337,-0.1231,-0.1156,-0.1302,-0.1182,-0.1537,-0.1229,-0.1161,-0.1145,-0.1168,-0.102,-0.1025,-0.1028,-0.103,-0.1032,-0.0783,-0.0794,-0.0839,-0.0908,-0.096,-0.1062,-0.1123,-0.123,-0.1322,-0.1428,-0.1435,-0.138,-0.1295,-0.1063,-0.0925,-0.0831,-0.0965,-0.094,-0.0958,-0.098,-0.0966,-0.0898,-0.0699,-0.0701,-0.0704,-0.0706,-0.0707,0,-0.0739,-0.0727,-0.0747,-0.0855,-0.0939,-0.0949,-0.1112,-0.1152,-0.1237,-0.1252,-0.1206,-0.1032,-0.0852,-0.0794,-0.0568,-0.0497,-0.0493,-0.0468,-0.0491,-0.0533,-0.0571,-0.0541,-0.0158,-0.0157,-0.0156,-0.0156,0,0,-0.0687,-0.0698,-0.072,-0.0814,-0.0867,-0.0929,-0.101,-0.1005,-0.1021,-0.0975,-0.0918,-0.0877,-0.0837,-0.0601,-0.044,-0.0289,-0.0422,-0.0225,-0.0653,-0.0727,-0.0765,-0.0808,-0.0802,0,0,0,0,0]},{"header":{"parameterUnit":"m.s-1","parameterCategory":2,"la1":30.2991,"la2":30.254,"lo1":-89.0895,"lo2":-89.0444,"dy":0.0017,"dx":0.0017,"nx":28,"ny":28,"refTime":"2023-07-28T21:00:00:Z","depth":"2","parameterNumber":3,"parameterNumberName":"V-component_of_CURRENTS"},"data":[0,0,0,0,0,0,0,0,0,0,0,0,0,0,0,0,0,0,0,0,0,0,0,0,0,0,0,0,0,0,0,0,0,0,0,0,0,0,0,0,0,0,0,0,0,0,0,0,0,0,0,0,0,0,0,0,0,0,0.0247,0.0247,0,0.0311,0.0312,0.0313,0.0344,0.0344,0.0343,0.0343,0.0357,0.0357,0.0358,0,0,0,0,0,0,0,0,0,0,0,0,0,0.012,0.0122,0.0247,0.0247,0.0248,0.0311,0.0312,0.0313,0.0344,0.0343,0.0343,0.0343,0.0357,0.0357,0.0358,0,0,0,0,0,0,0,0,0,0,0,0,0,0.0182,0.0123,0.0247,0.0268,0.0271,0.0311,0.0312,0.0314,0.0344,0.0343,0.0343,0.0343,0.0356,0.0357,0.0358,0.0375,0,0,0.0361,0.0362,0,0,0,0,0,0,0,0,0.0178,0.0187,0.0265,0.0267,0.027,0.0316,0.0272,0.033,0.0344,0.032,0.0343,0.0342,0.0337,0.0339,0.0358,0.0375,0.0376,0.0361,0.0362,0.0363,0.0363,0,0,0,0,0,0,0,0.0174,0.0184,0.0276,0.0265,0.0268,0.0264,0.0273,0.0284,0.0332,0.0322,0.0323,0.0325,0.0338,0.0357,0.0358,0.0376,0.0361,0.0362,0.0363,0.0363,0.0437,0.0438,0,0,0,0,0,0,0.0162,0.0181,0.0274,0.0277,0.0218,0.0266,0.0276,0.0304,0.0333,0.0336,0.0326,0.0326,0.0356,0.0357,0.0359,0.0347,0.0363,0.0364,0.0364,0.0435,0.0437,0.0438,0,0,0,0,0,0,0.016,0.0171,0.0271,0.0226,0.0238,0.0269,0.03,0.0306,0.0302,0.0336,0.0339,0.0313,0.0355,0.0357,0.0374,0.0349,0.0364,0.0365,0.0434,0.0436,0.0438,0.0344,0,0,0,0,0,0,0.0156,0.0171,0.0167,0.0226,0.024,0.027,0.03,0.0307,0.0304,0.0305,0.0326,0.0329,0.0355,0.0373,0.0375,0.035,0.0366,0.0432,0.0435,0.0437,0.0345,0.0342,0.034,0,0,0,0,0,0.0152,0.0149,0.0167,0.0176,0.0242,0.0268,0.0275,0.0297,0.0303,0.0294,0.0331,0.0327,0.0391,0.0374,0.0377,0.0351,0.0431,0.0434,0.0437,0.0346,0.0343,0.034,0,0,0,0,0,0,0.008,0.0154,0.0174,0.0191,0.0215,0.0272,0.0262,0.028,0.0303,0.0302,0.0337,0.0342,0.035,0.0378,0.0359,0.039,0.0412,0.0416,0.0343,0.034,0.0337,0.031,0.0367,0,0,0,0,0,0.0066,0.0083,0.0148,0.0147,0.0169,0.0212,0.0218,0.0236,0.0271,0.028,0.0298,0.0335,0.037,0.0373,0.0407,0.0411,0.0463,0.0405,0.0403,0.04,0.0386,0.0519,0.0526,0.0448,0.0448,0.0448,0,0,0.0027,0.0072,0.0074,0.0131,0.016,0.0181,0.0215,0.0221,0.0224,0.0277,0.0277,0.0317,0.0374,0.0391,0.0396,0.0401,0.0438,0.0403,0.0399,0.0388,0.0522,0.053,0.0536,0.045,0.045,0.0449,0,0,-0.0022,0.0014,0.0024,0.0051,0.0091,0.0124,0.0119,0.017,0.0179,0.0193,0.0245,0.0279,0.0308,0.0357,0.0386,0.0392,0.0424,0.0392,0.0341,0.047,0.0477,0.0483,0.0499,0.0508,0.0385,0.0385,0.0385,0,-0.0071,-0.0036,0.0019,0.0042,0.0054,0.0097,0.0106,0.0125,0.0163,0.0174,0.0177,0.0268,0.03,0.0352,0.0349,0.0379,0.0426,0.0336,0.0463,0.0472,0.0481,0.0496,0.0507,0.0381,0.0381,0.0382,0.0382,0,-0.0093,-0.0075,-0.0071,-0.0016,0.0,0.0003,0.0055,0.0056,0.007,0.0099,0.0136,0.0203,0.0252,0.0273,0.03,0.0369,0.0368,0.0446,0.046,0.0482,0.0496,0.051,0.0375,0.0376,0.0378,0.0379,0,0,-0.0164,-0.0097,-0.0096,-0.0087,-0.0029,-0.0021,-0.0009,0.0022,0.0026,0.0057,0.0084,0.0139,0.0163,0.02,0.0251,0.0347,0.0418,0.0398,0.0407,0.0387,0.0623,0.0567,0.0576,0.0527,0.053,0.0533,0.0585,0,-0.0197,-0.0175,-0.0126,-0.0135,-0.0119,-0.0074,-0.007,-0.0044,-0.0011,0.0021,0.0093,0.0128,0.014,0.0158,0.0253,0.0414,0.0459,0.0391,0.0626,0.063,0.0562,0.0594,0.0632,0.0679,0.0598,0.0601,0.0602,0,-0.0214,-0.0205,-0.0198,-0.0183,-0.0171,-0.0173,-0.015,-0.0142,-0.0077,-0.0056,-0.0005,0.0056,0.0154,0.0187,0.0407,0.0365,0.045,0.0564,0.0571,0.0564,0.0603,0.0662,0.0708,0.0625,0.0624,0.0622,0.062,0,-0.0276,-0.0253,-0.0256,-0.0249,-0.0219,-0.0223,-0.022,-0.0171,-0.0166,-0.0103,-0.0066,0.0042,0.0121,0.0282,0.0425,0.0444,0.0678,0.0755,0.0758,0.0751,0.0851,0.0848,0.0885,0.0885,0.0885,0.0885,0.0885,0,-0.0311,-0.032,-0.0294,-0.0302,-0.0336,-0.0291,-0.0305,-0.0292,-0.0243,-0.0209,-0.0122,-0.005,0.0164,0.0304,0.0431,0.0604,0.0672,0.0736,0.0784,0.081,0.0803,0.0828,0.0821,0.0887,0.0886,0.0886,0.0886,0,-0.0353,-0.0331,-0.0347,-0.0347,-0.0357,-0.0382,-0.0383,-0.0384,-0.0332,-0.0267,-0.0251,-0.0092,0.0079,0.023,0.0498,0.061,0.0785,0.0802,0.0738,0.0778,0.0762,0.075,0.0868,0.0867,0.0866,0.0865,0.0864,0,-0.036,-0.0367,-0.0394,-0.0415,-0.0416,-0.0446,-0.0462,-0.045,-0.0435,-0.0279,-0.0242,-0.0089,0.0037,0.0333,0.0563,0.0738,0.0698,0.0825,0.0885,0.0736,0.0772,0.0761,0.075,0.0957,0.0957,0.0957,0.0958,0,-0.0385,-0.0391,-0.0414,-0.0467,-0.0497,-0.0528,-0.0544,-0.0538,-0.0471,-0.039,-0.024,-0.0118,0.0165,0.0426,0.0604,0.0711,0.0813,0.0832,0.0781,0.0931,0.0821,0.0854,0.0842,0.0959,0.0959,0.0959,0.0959,0.0959,-0.0405,-0.0432,-0.0466,-0.0518,-0.0552,-0.0578,-0.0596,-0.0562,-0.0521,-0.0358,-0.0241,0.0038,0.0275,0.0637,0.0685,0.0768,0.0847,0.0899,0.0901,0.0902,0.0879,0.0772,0.089,0.089,0.0889,0.0889,0.0888,0,-0.0433,-0.0463,-0.051,-0.0575,-0.0624,-0.0631,-0.0627,-0.0609,-0.0525,-0.0324,-0.018,0.0174,0.0457,0.0618,0.0835,0.092,0.092,0.0819,0.0857,0.0861,0.0863,0.0837,0.0837,0.0835,0.0834,0.0832,0,0,-0.0446,-0.0503,-0.0534,-0.0629,-0.0665,-0.0709,-0.0695,-0.0625,-0.0489,-0.0285,-0.0016,0.0303,0.0607,0.0711,0.0768,0.0804,0.0758,0.0749,0.0812,0.0852,0.0848,0.0966,0.0937,0,0,0,0,0]}],[{"header":{"parameterUnit":"m.s-1","parameterCategory":2,"la1":30.2991,"la2":30.254,"lo1":-89.0895,"lo2":-89.0444,"dy":0.0017,"dx":0.0017,"nx":28,"ny":28,"refTime":"2023-07-28T21:00:00:Z","depth":"4","parameterNumber":2,"parameterNumberName":"U-component_of_CURRENTS"},"data":[0,0,0,0,0,0,0,0,0,0,0,0,0,0,0,0,0,0,0,0,0,0,0,0,0,0,0,0,0,0,0,0,0,0,0,0,0,0,0,0,0,0,0,0,0,0,0,0,0,0,0,0,0,0,0,0,0,0,-0.1043,-0.1044,0,-0.1095,-0.1095,-0.1095,-0.1098,-0.1098,-0.1097,-0.1097,-0.1144,-0.1145,-0.1146,0,0,0,0,0,0,0,0,0,0,0,0,0,-0.0951,-0.0952,-0.1042,-0.1044,-0.1045,-0.1095,-0.1095,-0.1095,-0.1098,-0.1098,-0.1097,-0.1097,-0.1143,-0.1145,-0.1146,0,0,0,0,0,0,0,0,0,0,0,0,0,-0.099,-0.0952,-0.1042,-0.1056,-0.1059,-0.1095,-0.1095,-0.1095,-0.1098,-0.1098,-0.1097,-0.1097,-0.1143,-0.1145,-0.1147,-0.1161,0,0,-0.1153,-0.1154,0,0,0,0,0,0,0,0,-0.0988,-0.0992,-0.1053,-0.1056,-0.1058,-0.1095,-0.108,-0.1119,-0.1098,-0.1077,-0.1097,-0.1097,-0.1131,-0.1134,-0.1136,-0.1163,-0.1165,-0.1153,-0.1154,-0.1155,-0.1155,0,0,0,0,0,0,0,-0.0985,-0.099,-0.1057,-0.1055,-0.1058,-0.1063,-0.1067,-0.1087,-0.1099,-0.1078,-0.108,-0.1095,-0.1131,-0.1134,-0.1137,-0.1166,-0.1153,-0.1155,-0.1156,-0.1157,-0.1288,-0.129,0,0,0,0,0,0,-0.099,-0.0988,-0.1056,-0.1059,-0.1028,-0.1065,-0.107,-0.1078,-0.1099,-0.1104,-0.1095,-0.1095,-0.113,-0.1134,-0.1138,-0.1205,-0.1155,-0.1157,-0.1158,-0.1286,-0.1289,-0.1291,0,0,0,0,0,0,-0.0988,-0.0995,-0.1054,-0.103,-0.1038,-0.1067,-0.1076,-0.108,-0.1099,-0.1113,-0.1116,-0.1114,-0.113,-0.1136,-0.117,-0.1205,-0.1158,-0.1159,-0.1283,-0.1287,-0.129,-0.1306,0,0,0,0,0,0,-0.0985,-0.0994,-0.1007,-0.103,-0.104,-0.1079,-0.1077,-0.1081,-0.111,-0.1111,-0.113,-0.1133,-0.1131,-0.1167,-0.1172,-0.1206,-0.1161,-0.128,-0.1285,-0.1289,-0.1303,-0.131,-0.1316,0,0,0,0,0,-0.0981,-0.0989,-0.1007,-0.1016,-0.1055,-0.1081,-0.1085,-0.1101,-0.1111,-0.1118,-0.1137,-0.1133,-0.1199,-0.117,-0.1175,-0.1211,-0.1278,-0.1284,-0.1289,-0.13,-0.1309,-0.1316,0,0,0,0,0,0,-0.0947,-0.0992,-0.1011,-0.1031,-0.1061,-0.1083,-0.1095,-0.1114,-0.1135,-0.1142,-0.115,-0.1154,-0.121,-0.121,-0.1178,-0.1267,-0.1244,-0.125,-0.1251,-0.1259,-0.1266,-0.1283,-0.1163,0,0,0,0,0,-0.0951,-0.0976,-0.1014,-0.1034,-0.1047,-0.1078,-0.1095,-0.1113,-0.1136,-0.1145,-0.1159,-0.1189,-0.1235,-0.1243,-0.1279,-0.1309,-0.1288,-0.1344,-0.135,-0.1355,-0.1377,-0.1359,-0.1364,-0.1308,-0.1308,-0.1308,0,0,-0.0949,-0.0976,-0.0992,-0.1031,-0.1052,-0.1073,-0.1085,-0.1117,-0.1139,-0.1149,-0.1175,-0.1218,-0.1255,-0.13,-0.1324,-0.1298,-0.1357,-0.1362,-0.1366,-0.1385,-0.1365,-0.1369,-0.1374,-0.1312,-0.1311,-0.1311,0,0,-0.0952,-0.0975,-0.0998,-0.1024,-0.1071,-0.1082,-0.1098,-0.1132,-0.1149,-0.1196,-0.1219,-0.1277,-0.1323,-0.1351,-0.1376,-0.1442,-0.1406,-0.1464,-0.149,-0.1471,-0.1475,-0.1477,-0.1429,-0.1428,-0.1449,-0.1449,-0.1449,0,-0.0947,-0.0977,-0.1008,-0.1035,-0.1056,-0.1088,-0.111,-0.1132,-0.1176,-0.1184,-0.1212,-0.1328,-0.1353,-0.1421,-0.1454,-0.1456,-0.1428,-0.1447,-0.1475,-0.1478,-0.148,-0.1431,-0.1429,-0.145,-0.145,-0.145,-0.145,0,-0.0964,-0.0995,-0.1005,-0.1048,-0.1074,-0.1095,-0.1134,-0.1155,-0.1191,-0.121,-0.1301,-0.137,-0.1439,-0.1465,-0.1485,-0.1536,-0.1502,-0.1492,-0.1442,-0.1486,-0.1432,-0.1429,-0.1452,-0.1452,-0.1451,-0.1451,0,0,-0.0924,-0.1002,-0.1009,-0.1033,-0.1082,-0.1101,-0.1133,-0.1156,-0.117,-0.1254,-0.1291,-0.1419,-0.1474,-0.1512,-0.1561,-0.1559,-0.155,-0.154,-0.1538,-0.147,-0.1483,-0.1381,-0.1367,-0.1532,-0.1532,-0.1533,-0.1426,0,-0.0921,-0.0977,-0.1014,-0.1052,-0.1073,-0.1109,-0.1133,-0.1167,-0.1197,-0.1228,-0.133,-0.1397,-0.1484,-0.1541,-0.1569,-0.1564,-0.1551,-0.1579,-0.1472,-0.1469,-0.1354,-0.1364,-0.1534,-0.1424,-0.1423,-0.1422,-0.1422,0,-0.0916,-0.0954,-0.1002,-0.1056,-0.1067,-0.1095,-0.1124,-0.1155,-0.1194,-0.1233,-0.1332,-0.1389,-0.1479,-0.1527,-0.1565,-0.1577,-0.155,-0.1531,-0.1525,-0.143,-0.1364,-0.1382,-0.1417,-0.1418,-0.1418,-0.1418,-0.1419,0,-0.0858,-0.0936,-0.0973,-0.0995,-0.1062,-0.1085,-0.1114,-0.1151,-0.1167,-0.1236,-0.126,-0.1373,-0.1443,-0.1462,-0.1491,-0.1511,-0.147,-0.1471,-0.135,-0.134,-0.1454,-0.1453,-0.1462,-0.1463,-0.1463,-0.1463,-0.1463,0,-0.0812,-0.0843,-0.096,-0.0965,-0.1011,-0.1072,-0.1093,-0.1135,-0.1182,-0.1197,-0.1283,-0.1331,-0.143,-0.1431,-0.1448,-0.1397,-0.1438,-0.136,-0.1313,-0.1462,-0.1463,-0.1449,-0.1449,-0.1459,-0.146,-0.1461,-0.1461,0,-0.0742,-0.0811,-0.0864,-0.0953,-0.0982,-0.1023,-0.1081,-0.1086,-0.1148,-0.1179,-0.1207,-0.1278,-0.1278,-0.132,-0.1311,-0.1318,-0.1275,-0.1234,-0.137,-0.1331,-0.1163,-0.1165,-0.108,-0.1076,-0.1072,-0.1069,-0.1066,0,-0.0707,-0.0727,-0.0851,-0.0878,-0.092,-0.098,-0.1003,-0.1075,-0.1088,-0.1145,-0.1156,-0.1159,-0.1203,-0.1097,-0.116,-0.1125,-0.1132,-0.1102,-0.1181,-0.1164,-0.1127,-0.1135,-0.1143,-0.1061,-0.106,-0.1059,-0.1058,0,-0.0634,-0.0701,-0.0756,-0.0812,-0.0857,-0.09,-0.0948,-0.0954,-0.1034,-0.1085,-0.1064,-0.1048,-0.1019,-0.1021,-0.0984,-0.0982,-0.1128,-0.1064,-0.1073,-0.1147,-0.1139,-0.1108,-0.112,-0.1045,-0.1047,-0.1048,-0.1049,0,-0.0603,-0.0634,-0.0705,-0.0754,-0.0795,-0.0816,-0.0854,-0.0871,-0.0896,-0.0976,-0.096,-0.0966,-0.1001,-0.0941,-0.0923,-0.0893,-0.0899,-0.091,-0.0927,-0.0942,-0.0954,-0.0928,-0.0724,0,0,0,0,0,-0.0566,-0.0585,-0.062,-0.0678,-0.0706,-0.0734,-0.0807,-0.085,-0.0936,-0.0892,-0.0924,-0.0891,-0.0848,-0.0847,-0.0787,-0.0869,-0.091,-0.08,-0.0935,-0.0974,-0.0989,-0.1021,0,0,0,0,0,0,-0.0545,-0.058,-0.0608,-0.0599,-0.0603,-0.0636,-0.0687,-0.0754,-0.0738,-0.0815,-0.0779,-0.0833,-0.0785,-0.0842,-0.0758,-0.0761,-0.0833,-0.0807,-0.0805,-0.0966,-0.0979,-0.0991,-0.1029,0,0,0,0,0]},{"header":{"parameterUnit":"m.s-1","parameterCategory":2,"la1":30.2991,"la2":30.254,"lo1":-89.0895,"lo2":-89.0444,"dy":0.0017,"dx":0.0017,"nx":28,"ny":28,"refTime":"2023-07-28T21:00:00:Z","depth":"4","parameterNumber":3,"parameterNumberName":"V-component_of_CURRENTS"},"data":[0,0,0,0,0,0,0,0,0,0,0,0,0,0,0,0,0,0,0,0,0,0,0,0,0,0,0,0,0,0,0,0,0,0,0,0,0,0,0,0,0,0,0,0,0,0,0,0,0,0,0,0,0,0,0,0,0,0,-0.018,-0.018,0,-0.018,-0.018,-0.018,-0.0167,-0.0167,-0.0166,-0.0166,-0.0156,-0.0157,-0.0157,0,0,0,0,0,0,0,0,0,0,0,0,0,-0.0145,-0.0146,-0.018,-0.018,-0.018,-0.018,-0.018,-0.018,-0.0167,-0.0167,-0.0166,-0.0165,-0.0156,-0.0156,-0.0157,0,0,0,0,0,0,0,0,0,0,0,0,0,-0.0157,-0.0147,-0.018,-0.0171,-0.0171,-0.018,-0.018,-0.0181,-0.0168,-0.0167,-0.0166,-0.0165,-0.0156,-0.0156,-0.0157,-0.0176,0,0,-0.0158,-0.0158,0,0,0,0,0,0,0,0,-0.0156,-0.0158,-0.0173,-0.0172,-0.0171,-0.0171,-0.0164,-0.0178,-0.0168,-0.0171,-0.0166,-0.0165,-0.0159,-0.0159,-0.0165,-0.0176,-0.0176,-0.0158,-0.0158,-0.0159,-0.0159,0,0,0,0,0,0,0,-0.0155,-0.0158,-0.0183,-0.0173,-0.0172,-0.0159,-0.016,-0.0167,-0.0172,-0.0171,-0.0169,-0.0166,-0.0159,-0.0165,-0.0164,-0.0175,-0.0158,-0.0159,-0.0159,-0.0159,-0.0222,-0.0224,0,0,0,0,0,0,-0.0153,-0.0158,-0.0183,-0.0182,-0.0159,-0.016,-0.0162,-0.0174,-0.0172,-0.017,-0.0166,-0.0165,-0.0164,-0.0164,-0.0164,-0.0221,-0.0159,-0.0159,-0.0159,-0.0221,-0.0223,-0.0224,0,0,0,0,0,0,-0.0153,-0.0156,-0.0183,-0.0167,-0.0169,-0.0162,-0.0175,-0.0174,-0.018,-0.0168,-0.0166,-0.0174,-0.0164,-0.0163,-0.0192,-0.0219,-0.0159,-0.016,-0.0219,-0.0221,-0.0223,-0.0314,0,0,0,0,0,0,-0.0152,-0.0156,-0.0166,-0.0167,-0.017,-0.0194,-0.0176,-0.0175,-0.0178,-0.0177,-0.0174,-0.0172,-0.0163,-0.0191,-0.0192,-0.0219,-0.016,-0.0217,-0.022,-0.0223,-0.0309,-0.0319,-0.0327,0,0,0,0,0,-0.0151,-0.0171,-0.0167,-0.017,-0.0184,-0.0194,-0.0196,-0.0188,-0.0179,-0.019,-0.0199,-0.0172,-0.0208,-0.0194,-0.0194,-0.0221,-0.0216,-0.0219,-0.0222,-0.0305,-0.0317,-0.0327,0,0,0,0,0,0,-0.0161,-0.0171,-0.0167,-0.0189,-0.0192,-0.0191,-0.0198,-0.0194,-0.021,-0.021,-0.0199,-0.0199,-0.0233,-0.0215,-0.02,-0.0246,-0.0204,-0.0208,-0.0267,-0.0278,-0.0287,-0.0247,-0.016,0,0,0,0,0,-0.0168,-0.0187,-0.0188,-0.0206,-0.0208,-0.0205,-0.0208,-0.0206,-0.0215,-0.022,-0.0225,-0.023,-0.0247,-0.0253,-0.0261,-0.0291,-0.0216,-0.0305,-0.0315,-0.0322,-0.0291,-0.0238,-0.0239,-0.0235,-0.0235,-0.0235,0,0,-0.0179,-0.0184,-0.0196,-0.0209,-0.021,-0.023,-0.0206,-0.0217,-0.0239,-0.0218,-0.0258,-0.0265,-0.0263,-0.0301,-0.0312,-0.029,-0.0281,-0.0327,-0.0333,-0.0296,-0.0242,-0.0242,-0.0242,-0.0237,-0.0236,-0.0236,0,0,-0.0205,-0.0212,-0.0234,-0.0242,-0.0246,-0.0249,-0.0254,-0.0265,-0.0272,-0.031,-0.0306,-0.0326,-0.0352,-0.0357,-0.0362,-0.0422,-0.0333,-0.043,-0.0443,-0.0396,-0.0394,-0.0393,-0.0276,-0.0263,-0.0433,-0.0433,-0.0433,0,-0.0214,-0.0244,-0.0241,-0.0262,-0.0275,-0.0262,-0.0291,-0.0301,-0.0324,-0.0336,-0.0331,-0.0368,-0.0374,-0.0405,-0.0429,-0.0441,-0.037,-0.0408,-0.0405,-0.0402,-0.0398,-0.0279,-0.0264,-0.0438,-0.0437,-0.0437,-0.0436,0,-0.0257,-0.0279,-0.0292,-0.032,-0.0337,-0.0357,-0.0369,-0.0387,-0.0396,-0.0405,-0.0436,-0.0444,-0.0457,-0.0474,-0.047,-0.0465,-0.0406,-0.0425,-0.0373,-0.0404,-0.0276,-0.0259,-0.0444,-0.0443,-0.0441,-0.044,0,0,-0.0276,-0.0316,-0.0319,-0.034,-0.0369,-0.0387,-0.0425,-0.0452,-0.0467,-0.0486,-0.0507,-0.0537,-0.0523,-0.0523,-0.0523,-0.0478,-0.0402,-0.0439,-0.0434,-0.0312,-0.0231,-0.0193,-0.0168,-0.0423,-0.0421,-0.042,-0.0143,0,-0.0307,-0.0355,-0.0373,-0.0426,-0.0452,-0.0463,-0.0497,-0.0521,-0.0532,-0.0551,-0.0544,-0.0565,-0.0549,-0.0557,-0.0515,-0.0444,-0.0361,-0.047,-0.0226,-0.0216,-0.0173,-0.0151,-0.0414,-0.0129,-0.0125,-0.0122,-0.0119,0,-0.0343,-0.0367,-0.0422,-0.0472,-0.0485,-0.052,-0.0559,-0.0588,-0.0604,-0.0609,-0.0611,-0.0604,-0.0566,-0.0547,-0.0382,-0.045,-0.0329,-0.0249,-0.0238,-0.015,-0.0147,-0.0097,-0.0086,-0.0088,-0.0091,-0.0093,-0.0095,0,-0.0349,-0.0406,-0.0449,-0.0468,-0.0519,-0.0549,-0.058,-0.0607,-0.0623,-0.0638,-0.0636,-0.0601,-0.0563,-0.0442,-0.0284,-0.0329,-0.0057,-0.0111,0.0063,0.007,-0.0005,-0.001,0.0052,0.0052,0.0051,0.0051,0.005,0,-0.0373,-0.0408,-0.0455,-0.0475,-0.0532,-0.0564,-0.0609,-0.0633,-0.0647,-0.0651,-0.066,-0.0623,-0.0532,-0.039,-0.0255,-0.0016,-0.0025,0.0104,0.014,-0.0048,-0.0061,0.001,0.0001,0.0061,0.0059,0.0057,0.0055,0,-0.0376,-0.0405,-0.0458,-0.0513,-0.0536,-0.0577,-0.0632,-0.065,-0.0658,-0.0657,-0.0659,-0.0605,-0.0412,-0.0264,-0.0032,0.0043,0.0244,0.0344,0.0208,0.0226,0.0341,0.0324,0.0549,0.0552,0.0555,0.0558,0.056,0,-0.0387,-0.0406,-0.0478,-0.0514,-0.0544,-0.0598,-0.0629,-0.0657,-0.0664,-0.0623,-0.0612,-0.0455,-0.0387,-0.0001,0.0125,0.042,0.0439,0.0537,0.0372,0.0378,0.0391,0.0369,0.0349,0.0565,0.0565,0.0566,0.0567,0,-0.0395,-0.0417,-0.0459,-0.052,-0.0569,-0.062,-0.0659,-0.0656,-0.0657,-0.0655,-0.0524,-0.0383,-0.0147,0.0056,0.0305,0.049,0.0439,0.0568,0.056,0.0406,0.04,0.0404,0.0381,0.0577,0.0576,0.0575,0.0574,0,-0.0401,-0.0431,-0.0474,-0.0534,-0.0594,-0.063,-0.0651,-0.0622,-0.0613,-0.0555,-0.0486,-0.0285,-0.0171,0.0104,0.0324,0.0513,0.0517,0.0502,0.0498,0.0488,0.0345,0.0319,0.054,0,0,0,0,0,-0.0397,-0.0425,-0.0482,-0.0551,-0.0609,-0.0637,-0.0665,-0.067,-0.0646,-0.0538,-0.0509,-0.0285,0.0014,0.0128,0.0336,0.0345,0.0526,0.0584,0.0501,0.0635,0.0623,0.0462,0,0,0,0,0,0,-0.0395,-0.0443,-0.0474,-0.0546,-0.0589,-0.0645,-0.066,-0.0648,-0.0577,-0.0526,-0.0344,-0.027,0.0043,-0.0077,0.0336,0.0387,0.0348,0.0728,0.0731,0.0642,0.0631,0.0621,0.0452,0,0,0,0,0]}]]